Temp
66 66 65 65 66 66 65 65 65 65 65 65 65 65 65 65 64 64 64 65 65 65 66 65 65 65 69 68 70 90 81 81 84 85 84 83 81 79 76 80 83 78 82 82 84 82 84
66 66 66 65 66 65 65 65 65 65 65 64 65 65 65 65 64 64 64 64 65 65 65 64 65 64 67 58 85 91 87 86 87 85 85 85 84 85 79 78 76 81 81 80 81 81 81
66 66 65 66 66 66 66 65 65 64 64 64 64 65 65 64 64 64 64 64 64 64 64 64 65 69 65 65 87 89 86 85 87 86 84 88 89 81 81 75 77 78 74 76 78 79 78
65 66 66 66 66 66 65 64 64 64 63 64 64 64 64 64 64 63 64 63 63 63 64 65 65 69 61 82 88 83 86 85 89 89 88 90 89 83 78 80 75 72 73 66 74 75 75
65 65 65 65 65 65 65 65 64 63 63 63 64 63 64 64 63 63 63 63 63 64 65 65 66 68 62 82 77 84 86 82 86 87 88 88 85 80 77 71 69 71 65 64 65 75 74
65 64 65 65 65 65 65 65 64 63 63 63 63 62 62 63 63 62 62 62 65 65 68 72 72 62 69 73 82 85 89 87 82 82 79 79 78 73 75 70 60 65 64 67 64 68 72
64 64 64 64 64 65 64 64 64 63 62 62 62 62 62 62 62 62 63 72 66 63 67 64 67 65 73 79 84 82 87 83 82 78 69 76 69 65 72 75 76 72 70 66 65 70 67
64 63 63 63 63 63 63 63 63 63 62 62 62 62 61 61 61 60 64 65 68 69 58 72 69 71 75 78 72 80 85 75 73 68 75 70 64 75 78 76 73 71 68 67 69 68 66
64 64 63 63 63 63 62 63 63 62 62 62 62 61 61 61 61 62 67 68 76 73 60 67 71 70 73 74 73 75 79 77 72 69 70 67 71 75 72 70 69 69 67 66 64 65 65
64 64 63 63 62 62 62 62 62 62 62 62 61 61 61 61 58 72 67 75 76 73 52 61 65 72 74 74 68 78 81 76 74 69 69 71 71 70 69 68 70 64 71 66 66 61 56
64 64 63 62 62 61 61 61 61 62 61 61 61 61 60 60 66 65 72 75 74 67 41 64 67 80 75 69 72 72 80 76 69 71 72 66 67 66 64 68 72 66 70 68 66 64 63
63 63 63 62 62 62 61 60 61 61 61 61 61 61 61 64 65 66 71 70 69 49 43 58 67 66 67 68 70 71 73 77 76 70 71 69 73 71 68 66 69 70 67 66 65 64 53
63 63 62 62 62 61 61 60 60 61 61 61 60 60 61 72 71 72 70 69 55 48 63 57 59 65 66 61 66 69 67 66 65 59 60 66 66 67 71 64 67 67 64 55 53 51 53
63 62 62 62 62 61 61 61 60 60 61 61 59 59 64 70 77 74 67 61 47 58 54 64 62 63 59 61 64 65 64 62 66 66 65 59 53 64 67 66 65 64 65 58 47 52 57
63 62 62 62 62 61 61 60 60 60 60 60 59 67 70 76 75 72 63 56 56 57 62 60 60 55 53 60 63 64 64 64 64 65 62 62 55 64 65 67 66 62 58 64 59 61 54
63 62 62 62 61 61 60 60 60 60 60 59 69 72 74 78 76 69 63 56 62 64 61 61 54 58 50 58 58 58 61 60 60 63 67 66 55 62 61 66 65 63 66 56 59 48 47
63 63 62 62 61 60 60 60 60 60 60 58 66 67 72 77 76 68 59 64 64 66 64 61 59 60 60 55 58 56 60 59 62 63 66 66 64 56 61 60 61 59 60 60 59 58 51
63 63 62 62 61 60 60 60 60 59 58 55 69 62 74 77 64 70 65 66 56 66 67 65 64 63 61 59 61 61 59 60 60 62 61 64 64 56 58 61 63 63 63 63 55 53 57
63 63 63 62 61 59 59 59 59 58 55 64 65 69 75 75 61 66 70 65 65 63 64 64 62 63 65 62 57 60 58 56 59 60 61 64 61 53 52 57 60 58 62 63 61 58 52
62 62 62 62 61 60 59 59 58 58 57 62 66 62 68 69 72 66 66 66 64 63 63 64 63 64 62 60 62 57 56 56 57 60 55 59 61 58 53 54 62 56 58 60 60 53 56
61 61 62 62 61 60 60 59 59 58 58 62 65 64 66 63 66 67 68 66 63 61 64 65 63 62 62 58 59 58 58 55 57 56 60 61 57 59 58 58 57 58 58 58 56 59 54
61 61 61 61 61 60 60 59 58 58 57 61 60 64 67 67 66 66 61 63 63 65 64 62 60 63 63 60 61 58 60 61 60 58 60 60 56 57 55 56 55 53 57 58 58 58 58
61 61 61 60 60 60 59 59 58 57 56 61 68 70 64 60 66 64 65 64 64 67 62 62 63 62 60 59 62 63 64 64 63 61 59 59 57 54 52 54 54 51 57 58 58 59 58
61 60 60 60 60 60 59 59 58 57 56 66 67 66 63 59 64 64 64 63 64 64 62 61 64 63 59 67 68 67 65 63 62 59 61 57 57 55 50 52 42 53 59 60 58 59 60
60 60 60 60 60 59 59 60 59 58 56 60 64 62 62 59 67 66 64 63 62 61 60 60 59 62 66 62 60 55 56 56 55 56 57 59 59 51 46 48 56 54 54 55 54 56 62
60 60 60 60 60 59 59 59 59 58 57 60 61 65 59 59 62 67 64 64 62 62 58 56 60 67 63 63 60 50 50 56 50 50 55 55 58 54 49 39 38 54 57 60 59 50 60
59 59 60 60 59 58 58 58 59 58 57 59 62 65 59 56 66 64 62 61 67 65 62 58 56 56 61 60 54 51 53 57 50 50 47 51 51 47 48 43 52 59 59 60 47 51 60
59 59 59 59 59 58 57 55 56 58 57 58 60 66 60 58 64 59 61 61 61 64 60 61 58 58 58 55 56 56 53 57 54 56 52 50 47 46 50 43 40 60 56 52 57 59 60
59 59 59 59 58 58 57 56 55 58 57 56 57 65 65 58 59 59 59 59 57 58 62 62 62 62 66 61 59 57 52 53 54 51 55 48 58 55 53 53 59 61 59 59 60 59 59
MSLP
1021.09 1020.90 1020.82 1020.67 1020.49 1020.25 1020.05 1019.92 1019.82 1019.64 1019.56 1019.35 1019.13 1018.93 1018.72 1018.64 1018.47 1018.31 1018.17 1018.02 1017.82 1017.58 1017.35 1017.15 1016.85 1016.48 1015.56 1013.24 1010.61 1008.98 1009.25 1009.04 1009.16 1009.27 1008.66 1008.34 1007.86 1007.78 1007.23 1006.69 1006.49 1006.56 1005.82 1006.20 1006.24 1006.56 1006.37
1021.03 1020.92 1020.78 1020.64 1020.33 1020.17 1019.92 1019.76 1019.61 1019.47 1019.37 1019.27 1019.10 1018.90 1018.69 1018.61 1018.53 1018.40 1018.23 1018.05 1017.84 1017.59 1017.36 1017.11 1016.79 1016.51 1015.31 1012.53 1009.86 1009.11 1009.37 1008.91 1008.49 1008.51 1008.13 1007.96 1007.45 1007.57 1007.57 1007.33 1007.37 1006.80 1006.51 1006.89 1007.14 1007.06 1007.16
1020.99 1020.84 1020.66 1020.48 1020.24 1020.09 1019.85 1019.63 1019.39 1019.29 1019.20 1019.16 1019.02 1018.81 1018.64 1018.58 1018.51 1018.39 1018.24 1018.04 1017.82 1017.55 1017.29 1016.98 1016.69 1016.02 1014.17 1011.39 1009.52 1008.88 1009.29 1008.99 1008.59 1008.27 1007.58 1007.52 1007.27 1007.71 1007.69 1007.61 1008.28 1007.68 1007.55 1007.56 1007.75 1007.74 1007.65
1020.79 1020.66 1020.47 1020.30 1020.10 1019.91 1019.73 1019.57 1019.39 1019.23 1019.12 1019.00 1018.87 1018.72 1018.61 1018.55 1018.50 1018.37 1018.15 1017.90 1017.62 1017.32 1017.03 1016.69 1016.48 1015.40 1012.70 1010.19 1009.49 1009.48 1009.13 1008.54 1008.30 1008.14 1007.72 1007.49 1007.66 1007.64 1008.05 1008.21 1008.25 1008.17 1007.85 1007.73 1008.26 1008.48 1008.74
1020.59 1020.48 1020.27 1020.08 1019.85 1019.59 1019.53 1019.45 1019.34 1019.18 1019.04 1018.88 1018.80 1018.72 1018.57 1018.46 1018.45 1018.34 1018.06 1017.65 1017.24 1016.89 1016.55 1016.37 1015.88 1014.21 1011.08 1009.10 1009.01 1008.53 1008.49 1007.86 1007.70 1007.72 1007.76 1007.77 1007.70 1007.28 1007.91 1007.91 1007.73 1007.68 1007.15 1008.01 1008.86 1008.92 1008.87
1020.50 1020.37 1020.06 1019.82 1019.57 1019.41 1019.34 1019.24 1019.19 1019.04 1018.98 1018.83 1018.74 1018.62 1018.52 1018.52 1018.44 1018.23 1017.87 1017.25 1016.23 1016.33 1015.48 1015.17 1014.51 1013.49 1010.57 1008.04 1007.42 1007.52 1007.36 1007.40 1007.35 1007.47 1007.71 1007.55 1007.31 1006.83 1006.73 1006.86 1006.06 1006.42 1007.15 1007.51 1008.42 1009.27 1009.40
1020.22 1020.23 1020.01 1019.72 1019.46 1019.28 1019.14 1019.10 1018.99 1018.90 1018.85 1018.80 1018.70 1018.45 1018.45 1018.43 1018.35 1018.17 1017.69 1015.73 1015.56 1015.08 1014.29 1012.82 1011.53 1010.86 1009.16 1008.71 1007.85 1007.27 1007.10 1007.22 1007.04 1007.21 1006.78 1006.78 1006.53 1005.73 1005.68 1005.82 1005.69 1006.13 1006.53 1007.41 1008.61 1009.55 1009.59
1020.30 1019.96 1019.75 1019.56 1019.38 1019.23 1019.10 1018.94 1018.86 1018.82 1018.75 1018.69 1018.64 1018.40 1018.44 1018.51 1018.38 1018.21 1017.80 1015.76 1014.67 1014.76 1013.09 1011.16 1011.01 1010.36 1009.69 1009.15 1007.59 1006.79 1007.14 1007.04 1006.79 1006.42 1005.95 1006.71 1005.85 1005.34 1005.47 1005.67 1006.16 1006.66 1006.83 1007.50 1008.52 1009.69 1009.77
1020.39 1020.03 1019.72 1019.36 1019.21 1019.10 1019.05 1018.93 1018.77 1018.71 1018.68 1018.66 1018.63 1018.44 1018.52 1018.42 1018.28 1017.83 1016.49 1015.52 1014.82 1014.87 1013.07 1010.16 1009.83 1009.40 1008.63 1008.70 1006.98 1006.84 1007.34 1006.68 1006.45 1006.18 1005.89 1005.58 1005.47 1005.65 1005.76 1006.47 1006.64 1006.88 1007.17 1007.56 1008.54 1009.28 1009.66
1020.48 1020.12 1019.78 1019.43 1019.16 1019.05 1018.91 1018.92 1018.81 1018.73 1018.65 1018.69 1018.71 1018.43 1018.37 1018.24 1018.34 1015.95 1015.15 1014.78 1014.75 1014.78 1012.57 1009.84 1009.12 1008.36 1008.38 1008.29 1007.59 1007.53 1007.30 1006.95 1006.08 1005.63 1006.31 1005.73 1006.50 1006.38 1006.64 1006.71 1007.09 1006.88 1007.51 1008.31 1008.52 1008.98 1008.90
1020.46 1020.23 1019.93 1019.54 1019.21 1018.89 1018.95 1018.87 1018.80 1018.74 1018.68 1018.66 1018.71 1018.40 1018.27 1018.23 1017.08 1015.64 1014.61 1014.78 1014.62 1014.50 1011.65 1009.49 1008.48 1008.18 1008.05 1008.09 1007.59 1007.59 1007.76 1007.19 1006.12 1005.45 1005.97 1005.98 1006.56 1006.91 1007.23 1007.05 1007.49 1007.42 1008.10 1008.15 1008.47 1008.45 1008.48
1020.27 1020.10 1019.87 1019.66 1019.31 1018.94 1018.68 1018.88 1018.77 1018.71 1018.59 1018.60 1018.59 1018.39 1018.02 1017.52 1017.14 1015.76 1015.45 1015.17 1014.53 1013.19 1010.33 1009.19 1008.71 1008.11 1007.98 1008.19 1007.68 1007.79 1007.50 1007.38 1006.68 1006.46 1006.51 1006.70 1007.31 1007.43 1007.74 1008.58 1008.41 1008.58 1008.50 1008.61 1008.66 1008.37 1007.90
1020.05 1019.90 1019.77 1019.63 1019.42 1019.10 1018.66 1018.60 1018.70 1018.63 1018.51 1018.43 1018.34 1018.29 1017.92 1016.41 1015.08 1015.48 1015.33 1014.03 1012.43 1010.59 1009.99 1009.46 1008.95 1008.60 1007.76 1008.33 1007.79 1007.53 1007.32 1007.02 1006.40 1006.48 1006.53 1007.12 1007.59 1008.52 1008.61 1008.82 1009.06 1008.69 1008.15 1007.66 1007.69 1007.67 1006.93
1019.86 1019.59 1019.47 1019.42 1019.40 1019.06 1018.79 1018.48 1018.50 1018.58 1018.45 1018.27 1018.16 1018.13 1017.07 1016.14 1015.08 1015.29 1015.22 1013.30 1011.31 1010.07 1010.22 1009.71 1009.33 1009.03 1008.46 1008.65 1008.00 1007.81 1007.57 1007.20 1007.30 1006.67 1006.03 1006.54 1008.06 1008.63 1008.99 1008.58 1008.13 1008.40 1008.09 1007.29 1006.65 1006.28 1006.37
1019.49 1019.22 1019.12 1019.32 1019.27 1019.10 1018.77 1018.51 1018.18 1018.39 1018.41 1018.31 1018.21 1017.07 1015.89 1014.72 1015.02 1015.32 1014.56 1011.44 1010.15 1010.11 1010.02 1009.61 1009.72 1009.62 1009.66 1008.92 1008.42 1007.84 1007.69 1007.41 1007.97 1007.90 1006.73 1006.19 1008.07 1009.44 1009.47 1009.34 1009.22 1008.87 1008.82 1008.69 1007.68 1007.34 1007.24
1019.18 1019.08 1018.90 1018.57 1019.12 1018.98 1018.84 1018.62 1018.30 1018.00 1018.18 1018.46 1016.99 1015.46 1013.97 1014.11 1014.60 1014.66 1013.10 1010.50 1009.82 1010.22 1010.06 1009.88 1009.39 1009.47 1009.34 1008.62 1008.49 1008.67 1008.32 1009.14 1009.07 1009.06 1008.45 1007.23 1008.01 1009.39 1010.01 1009.90 1009.85 1009.41 1009.35 1008.84 1008.31 1007.25 1006.55
1018.95 1018.92 1018.76 1018.65 1018.35 1018.87 1018.58 1018.62 1018.43 1018.04 1017.90 1018.55 1017.08 1014.59 1013.91 1014.04 1014.09 1013.04 1011.20 1009.63 1009.79 1010.03 1010.11 1009.73 1009.16 1008.66 1008.50 1008.98 1009.09 1008.96 1008.71 1009.91 1009.97 1009.46 1009.01 1008.23 1007.85 1009.87 1010.12 1009.65 1008.98 1009.83 1009.24 1009.04 1008.74 1008.09 1007.31
1018.37 1018.56 1018.47 1018.56 1018.39 1018.38 1018.49 1018.42 1018.51 1018.31 1017.93 1018.55 1015.86 1013.86 1013.53 1013.78 1012.80 1010.81 1009.68 1009.64 1010.18 1009.61 1009.78 1009.53 1009.37 1008.85 1008.65 1009.00 1008.59 1008.75 1009.24 1010.16 1010.91 1010.47 1009.36 1009.25 1008.52 1008.80 1009.39 1010.12 1010.26 1009.76 1008.91 1008.68 1008.39 1008.14 1008.15
1018.31 1018.09 1018.03 1018.13 1018.26 1018.47 1018.33 1018.07 1018.55 1018.37 1018.22 1017.47 1015.10 1012.87 1013.22 1013.18 1011.04 1009.39 1009.06 1009.58 1009.90 1009.72 1009.61 1009.48 1009.18 1009.25 1009.16 1008.89 1009.20 1009.59 1010.37 1011.53 1011.54 1011.16 1010.46 1009.86 1009.03 1008.86 1009.71 1010.37 1010.37 1009.83 1009.39 1009.33 1009.18 1009.29 1008.71
1018.54 1018.11 1017.89 1017.82 1017.96 1018.20 1018.24 1018.08 1018.42 1018.34 1018.39 1018.09 1015.32 1012.24 1012.10 1012.20 1010.64 1009.94 1009.00 1008.77 1009.18 1010.07 1009.73 1009.73 1009.43 1009.47 1009.21 1009.07 1009.41 1009.77 1010.65 1011.77 1012.11 1011.73 1011.58 1010.94 1009.46 1008.76 1008.63 1009.10 1008.90 1009.39 1009.52 1009.83 1009.66 1009.15 1008.61
1018.15 1018.05 1017.90 1017.63 1017.73 1017.91 1018.11 1017.89 1018.22 1018.44 1018.27 1018.16 1015.39 1012.25 1011.35 1010.33 1009.87 1009.49 1009.17 1008.86 1008.77 1009.26 1009.83 1009.77 1009.40 1009.50 1009.28 1009.13 1009.42 1009.73 1010.69 1011.67 1012.07 1012.14 1011.70 1011.01 1009.64 1009.51 1009.55 1009.78 1009.89 1009.79 1009.82 1010.01 1009.85 1009.45 1009.19
1017.78 1017.77 1017.69 1017.49 1017.37 1017.61 1017.79 1017.75 1018.01 1018.20 1018.51 1017.64 1014.91 1013.14 1011.92 1010.70 1010.18 1009.26 1008.98 1008.78 1008.75 1008.89 1009.53 1009.52 1009.67 1009.62 1009.80 1009.59 1009.70 1009.66 1010.33 1010.83 1010.98 1012.06 1011.51 1011.22 1010.35 1010.22 1009.83 1010.30 1010.49 1010.37 1010.20 1010.12 1010.03 1009.99 1009.95
1017.27 1017.39 1017.34 1017.28 1017.19 1017.31 1017.53 1017.73 1017.78 1018.05 1018.16 1017.03 1014.67 1013.72 1013.29 1010.68 1009.85 1009.41 1008.55 1008.75 1008.73 1009.03 1010.01 1010.19 1010.15 1010.20 1010.45 1010.99 1010.95 1010.88 1010.89 1011.00 1011.04 1011.13 1011.20 1011.03 1010.72 1010.52 1009.93 1010.71 1010.65 1010.21 1009.70 1009.81 1010.10 1010.36 1010.45
1016.80 1016.78 1016.93 1016.90 1016.88 1016.83 1017.08 1017.39 1017.62 1017.60 1017.88 1016.49 1015.47 1014.41 1012.92 1010.76 1009.92 1009.23 1009.13 1009.36 1009.27 1009.66 1009.86 1010.66 1010.77 1010.77 1011.90 1011.73 1011.36 1011.09 1011.11 1011.24 1011.47 1011.78 1011.73 1011.29 1011.06 1011.18 1010.78 1010.98 1010.55 1010.53 1010.69 1010.47 1010.45 1010.70 1010.95
1016.43 1016.41 1016.41 1016.54 1016.52 1016.55 1016.74 1017.05 1017.26 1016.98 1017.36 1017.28 1016.61 1015.42 1013.78 1011.40 1009.74 1009.36 1009.69 1009.59 1010.03 1010.49 1010.86 1011.25 1012.03 1012.15 1012.17 1011.91 1010.99 1010.80 1010.76 1011.00 1011.66 1012.23 1012.21 1012.09 1011.52 1011.47 1011.44 1010.85 1010.08 1010.64 1011.28 1011.32 1011.22 1010.77 1011.07
1015.82 1015.83 1015.90 1016.05 1015.99 1016.28 1016.44 1016.72 1016.86 1016.71 1016.60 1017.13 1016.60 1016.09 1015.59 1012.83 1010.47 1009.94 1009.90 1010.07 1009.85 1010.18 1011.35 1012.18 1012.88 1012.70 1012.53 1011.33 1010.49 1010.06 1009.74 1009.93 1011.09 1012.16 1012.79 1012.53 1012.27 1011.86 1011.82 1011.70 1010.94 1010.79 1011.57 1011.92 1011.95 1011.43 1011.60
1015.21 1015.27 1015.36 1015.43 1015.51 1015.91 1016.16 1016.24 1016.29 1016.30 1015.76 1016.73 1015.91 1015.71 1015.82 1013.64 1011.50 1011.48 1010.95 1010.69 1010.36 1010.31 1010.61 1011.96 1012.68 1012.92 1012.69 1010.99 1010.34 1010.12 1009.65 1010.29 1010.43 1010.91 1011.91 1012.10 1012.16 1011.95 1011.78 1011.82 1010.98 1011.13 1011.91 1012.29 1012.19 1012.25 1012.23
1014.46 1014.58 1014.74 1014.82 1014.96 1015.16 1015.69 1015.59 1015.80 1015.68 1015.12 1016.35 1015.51 1015.09 1015.34 1013.95 1012.37 1012.77 1012.47 1011.90 1011.77 1011.27 1010.94 1011.60 1012.22 1012.03 1011.76 1010.81 1010.06 1009.81 1010.05 1010.29 1010.50 1010.61 1011.14 1011.21 1011.47 1011.55 1011.54 1011.76 1011.47 1011.63 1012.38 1012.35 1012.40 1012.61 1012.80
1013.69 1013.87 1014.02 1014.09 1014.35 1014.61 1014.91 1014.84 1015.66 1015.25 1015.06 1016.04 1015.36 1014.73 1015.18 1014.88 1013.54 1013.90 1013.57 1013.52 1013.28 1012.88 1011.98 1011.65 1011.02 1010.28 1009.92 1009.81 1010.15 1010.29 1010.48 1010.79 1010.58 1010.16 1011.39 1011.09 1010.69 1010.74 1011.08 1010.92 1011.33 1011.77 1011.96 1012.55 1012.86 1012.93 1013.31
Wind_Speed
8 8 6 6 8 8 9 8 10 9 10 12 11 12 10 8 6 5 6 8 10 11 12 12 13 14 12 12 19 17 11 2 13 17 15 13 14 11 10 9 10 13 5 3 4 7 7
8 10 9 11 8 10 9 8 9 9 8 12 13 10 11 7 5 7 8 10 12 12 12 13 13 12 15 20 13 14 8 4 11 16 15 14 13 13 8 4 6 5 1 3 5 7 5
9 11 10 10 11 10 9 10 9 8 7 10 12 10 11 6 5 7 10 12 13 13 13 14 13 11 15 22 13 4 11 8 11 13 13 13 11 9 6 4 1 1 6 4 5 5 4
9 9 12 11 11 12 10 9 7 6 7 9 11 10 10 6 6 10 12 14 15 15 15 14 12 13 15 16 14 23 18 13 11 13 10 7 7 12 6 4 5 7 3 4 5 1 5
11 11 11 12 13 10 10 9 10 8 6 9 9 9 9 6 9 12 14 16 18 17 16 12 12 11 14 2 13 18 17 13 11 10 9 8 9 10 11 11 10 9 11 15 8 3 2
12 13 13 13 12 11 12 10 10 7 7 8 7 7 8 8 10 11 15 19 17 14 13 10 9 9 10 4 7 11 12 13 13 13 10 11 9 10 12 13 14 15 16 13 11 9 10
9 11 15 14 12 12 11 9 10 8 7 8 6 6 5 7 8 10 13 11 7 9 11 13 1 14 10 16 5 10 12 13 11 14 13 14 13 15 19 16 15 6 10 13 3 3 5
10 9 11 15 12 11 11 10 9 8 7 7 5 6 7 9 9 8 9 7 9 7 12 14 20 18 17 11 7 10 8 13 13 16 16 10 14 16 14 17 13 10 11 11 4 3 2
11 11 11 12 12 11 11 10 9 9 7 7 4 3 6 8 9 8 8 12 8 10 8 3 6 9 6 4 7 11 12 11 14 18 17 14 7 3 6 8 12 12 12 9 7 4 7
13 13 12 11 11 11 10 10 9 9 7 7 6 2 5 6 7 3 6 3 8 5 8 7 6 4 5 4 4 2 3 5 8 14 15 15 7 6 9 14 12 14 6 4 6 4 7
12 14 14 12 10 8 10 10 10 10 8 6 6 3 4 4 11 5 5 8 7 4 2 3 5 3 1 5 9 5 1 6 9 11 10 7 8 10 10 3 10 4 6 5 5 8 6
11 13 13 14 13 9 5 11 11 11 8 8 7 6 4 7 7 10 11 11 5 5 2 3 2 5 8 2 2 5 6 3 6 6 6 10 6 3 4 4 5 9 8 6 4 6 9
10 10 12 13 15 12 8 6 12 12 11 9 8 8 8 3 3 3 11 6 5 4 2 3 1 4 3 4 4 9 12 9 7 11 10 11 7 5 8 10 5 7 7 5 7 6 4
10 8 10 10 12 13 12 9 9 12 13 8 8 8 11 10 5 5 7 6 4 8 1 3 1 4 1 1 2 4 8 7 4 8 13 11 8 8 3 4 4 10 7 8 7 6 2
9 8 7 10 11 12 12 12 8 10 13 8 6 9 8 6 8 5 7 9 7 5 5 3 6 7 3 3 5 4 4 3 5 6 6 8 7 5 4 1 4 7 7 5 7 7 8
9 8 6 5 9 10 13 13 11 7 9 8 7 6 9 7 7 5 7 10 5 2 4 3 1 8 10 3 1 3 6 2 0 3 5 3 6 1 4 2 3 4 2 4 5 5 8
10 9 8 6 3 7 10 13 13 7 5 7 9 6 6 7 6 6 8 7 3 2 3 4 5 4 4 3 5 7 2 4 0 1 4 3 3 5 4 8 4 6 6 5 5 4 6
10 9 7 6 5 4 8 10 12 8 4 3 8 6 5 7 6 6 7 3 2 3 3 4 4 4 4 7 4 4 2 4 3 4 2 3 5 6 4 4 2 4 4 6 6 6 4
13 10 6 5 5 4 5 7 9 6 7 6 7 5 5 7 7 8 6 4 4 4 3 2 3 2 1 4 4 3 3 2 2 3 2 1 4 5 6 5 4 5 8 7 4 2 9
13 13 8 5 5 4 3 6 7 6 3 3 7 5 5 8 10 10 11 11 6 3 4 3 2 2 2 4 2 3 4 2 1 2 5 5 3 6 5 6 3 5 8 9 10 6 8
10 10 13 10 7 5 2 3 5 6 4 5 5 7 4 4 11 13 11 6 7 4 4 4 3 7 6 4 5 4 4 4 1 1 3 5 4 2 2 2 2 4 5 9 13 13 10
10 11 11 14 9 7 6 2 1 2 5 6 5 6 3 10 6 8 10 11 13 5 4 3 6 1 4 4 4 2 6 5 2 5 4 2 1 1 3 1 4 8 9 10 11 13 13
11 10 11 10 11 9 7 6 3 4 10 5 6 8 7 2 7 8 10 10 8 5 3 2 4 4 5 3 3 5 5 5 4 4 5 4 2 2 1 0 5 11 11 13 8 7 8
13 12 11 11 12 12 9 9 7 8 12 8 7 6 9 12 7 9 4 6 8 8 3 2 2 5 4 8 9 8 8 8 8 7 4 3 3 1 3 3 5 5 5 5 7 3 8
14 14 13 12 12 11 12 11 10 10 10 9 9 4 9 12 12 10 10 6 4 5 2 4 5 4 10 3 4 5 5 4 5 5 4 4 2 2 3 5 8 8 3 3 4 1 7
15 15 15 15 12 12 10 12 12 11 8 7 9 7 6 8 12 6 5 7 7 7 5 3 3 9 2 4 3 4 4 0 4 3 1 1 4 5 2 2 4 5 5 3 2 4 2
17 17 17 16 14 10 12 12 15 12 10 7 6 13 5 9 9 3 4 5 4 6 2 5 7 5 3 4 4 4 3 2 4 4 5 4 4 8 6 5 6 9 8 5 4 4 6
18 18 18 16 16 12 11 6 15 13 11 9 6 9 8 7 7 3 2 3 2 6 5 9 6 5 5 5 3 3 3 3 3 3 4 7 6 5 5 5 6 10 7 5 5 3 4
19 18 17 16 15 14 15 9 15 16 11 13 7 5 7 7 5 4 2 2 3 5 4 9 5 5 5 5 2 2 3 3 3 3 4 5 4 2 6 2 3 11 5 5 1 3 4
Wind_Direction
322 321 298 301 303 304 303 310 310 319 319 319 316 320 306 318 327 328 323 313 310 311 317 319 318 319 307 247 250 281 344 307 187 204 218 220 218 218 228 242 230 234 220 236 157 167 190
340 327 327 316 303 307 311 314 304 303 316 316 317 311 307 294 322 325 319 313 311 311 313 313 310 312 269 269 264 261 321 234 199 200 212 221 230 217 277 282 246 335 176 166 179 156 163
337 325 321 304 304 298 302 294 299 310 307 309 313 310 319 293 308 312 309 308 307 306 307 304 301 287 269 251 283 278 306 262 231 219 220 216 231 179 210 226 232 315 185 171 205 180 137
320 324 320 313 309 299 297 302 305 305 306 304 310 318 316 290 300 312 305 304 301 298 295 294 290 271 266 270 252 249 259 248 234 221 239 189 189 204 207 72 170 221 218 220 124 188 88
343 333 322 318 305 302 312 307 301 295 294 300 307 316 316 310 310 315 305 301 294 286 284 278 257 235 268 315 233 239 240 223 200 199 197 180 199 189 176 199 201 204 216 215 240 250 234
350 344 334 324 312 320 304 299 297 303 296 294 303 321 332 311 302 307 308 292 278 284 236 241 251 268 248 285 203 233 195 223 183 170 162 183 205 201 205 199 212 210 223 205 230 231 254
360 349 336 333 328 315 310 298 290 293 290 299 295 327 327 315 307 311 311 285 223 191 225 244 76 250 294 338 227 211 180 195 194 187 187 197 208 207 202 217 232 272 224 227 219 53 281
343 348 344 334 327 319 307 296 287 281 284 294 285 328 333 327 304 308 283 284 12 342 296 252 245 262 274 281 247 168 196 190 188 196 190 171 219 211 218 215 227 239 226 213 189 137 284
342 340 342 343 340 330 313 293 281 279 279 285 283 312 298 301 303 266 268 292 320 324 262 163 233 252 272 208 219 159 201 229 196 210 199 200 168 126 176 193 211 215 243 220 232 143 195
339 338 340 348 351 336 316 294 284 277 273 273 290 278 303 314 261 325 249 222 312 284 270 128 167 166 181 250 185 7 255 259 219 200 197 237 123 163 187 217 230 233 167 251 195 203 248
338 337 339 344 342 345 321 296 292 283 269 263 270 259 274 251 325 262 15 328 321 218 282 103 127 59 217 267 125 157 219 225 204 166 203 128 158 168 206 226 190 218 158 183 204 244 294
331 338 343 341 340 336 335 308 289 287 271 257 245 246 220 219 247 267 320 303 233 236 53 109 358 181 185 240 155 111 197 230 350 153 215 106 72 127 76 99 260 142 141 164 214 254 245
323 335 341 342 338 336 337 311 298 285 274 261 235 233 225 284 311 11 320 272 268 319 88 81 47 210 182 173 165 197 188 183 196 166 170 142 123 109 158 126 140 221 197 215 204 197 255
314 324 335 337 336 342 337 330 306 293 288 262 234 229 224 242 279 319 310 247 320 26 259 117 275 219 19 289 141 181 182 199 233 291 173 179 162 169 162 316 210 205 280 274 291 295 85
293 305 324 327 332 342 343 336 323 300 294 260 223 220 252 242 218 232 257 271 13 25 341 325 101 231 327 243 276 235 237 197 32 350 311 198 102 113 48 344 326 140 224 8 283 250 269
279 288 297 331 331 340 343 342 329 318 301 241 256 249 244 142 166 195 262 275 348 49 317 284 342 178 196 191 195 305 187 73 279 336 329 40 116 28 119 191 82 318 25 198 201 259 252
277 283 297 310 334 335 348 346 335 324 316 260 257 245 106 159 192 230 264 340 328 145 233 260 311 280 60 158 189 230 23 109 7 348 305 306 277 123 182 207 164 170 207 235 307 289 302
265 278 290 291 315 341 342 351 343 321 113 232 274 237 139 185 233 226 271 21 14 265 212 264 281 297 156 223 231 230 222 18 15 333 223 38 308 159 129 88 347 310 280 246 251 168 245
324 260 267 280 309 305 340 359 340 316 204 330 260 237 160 219 257 239 198 252 266 251 243 263 269 287 310 203 219 200 159 54 10 305 351 103 221 161 165 174 176 229 204 244 282 295 266
335 325 271 258 261 272 333 353 334 305 265 209 288 233 173 207 265 278 290 270 239 216 258 267 300 247 244 223 246 174 142 115 343 337 338 292 286 306 8 55 80 186 203 216 228 242 263
315 335 334 286 261 269 285 357 346 312 166 237 243 255 359 200 234 238 252 284 269 237 230 232 212 244 237 239 207 173 126 137 145 129 251 282 248 272 48 22 326 303 224 211 228 248 275
304 320 328 326 258 257 262 255 41 346 177 237 281 259 176 273 287 256 220 251 254 228 245 205 250 215 238 277 353 220 175 196 143 182 212 195 113 294 240 226 277 271 256 247 241 254 267
289 300 312 321 306 262 241 238 184 170 204 234 251 279 286 276 229 241 232 242 252 228 194 304 298 209 215 76 60 58 62 54 93 169 166 191 166 224 191 69 286 261 246 230 236 243 255
280 288 292 297 310 269 227 225 214 176 208 269 306 321 265 257 232 240 256 275 241 226 281 133 228 260 93 141 127 109 99 96 90 73 6 177 200 262 312 268 244 74 49 0 212 259 226
271 276 282 286 293 296 253 226 223 177 201 245 261 303 288 265 264 254 242 230 168 163 116 136 74 20 148 193 193 173 168 181 93 47 42 338 215 191 254 238 311 159 184 182 206 311 220
264 265 275 277 272 288 276 256 231 197 171 242 241 244 281 285 259 271 238 214 217 201 157 107 87 161 254 247 233 231 213 351 159 144 56 218 273 251 162 257 253 70 140 163 187 246 146
256 260 266 270 266 258 273 255 249 208 155 227 251 214 252 270 267 288 245 219 225 200 135 130 149 196 247 212 218 230 215 357 216 211 167 173 197 223 217 241 271 118 145 171 232 62 147
248 254 259 265 266 262 253 322 295 216 150 212 249 213 212 268 294 313 307 238 203 230 192 128 146 199 186 228 224 196 255 153 253 56 190 186 174 203 212 213 244 144 138 226 79 103 146
247 250 253 257 256 250 252 217 271 297 176 202 243 198 215 242 350 312 312 314 312 337 328 179 351 141 179 211 211 79 184 169 254 214 203 229 249 310 205 238 103 185 44 87 94 158 185